Find OneWeb SL0238

NORAD ID: 48784 Int'l Des: 2021-045 Owner: ONEWEBN Country: UK Constellation: oneweb operational
LEOCIRCULARPOLARONEWEB_TYPE

Live Position

Loading 3D Globe...

About OneWeb SL0238

Description loading...

Upcoming Passes

Passes for default location (London). Set your location on the main map for personalized predictions.

Altitude History

Loading altitude history...

Two-Line Element Set

1 48784U 21045T 26127.77528764 .00000039 00000-0 69745-4 0 9994
2 48784 87.8980 267.2250 0001506 108.7599 251.3694 13.15549081239065
Epoch: May 7, 2026 • Age: 8 hours

Current Status

Altitude 1214.5 km
Velocity 7.25 km/s
Sub-Earth Point 84.23°N, 27.36°E
Launch Date May 28, 2021
Age 4.9 years
Type internet

Technical Details

Classification Payload
Mass 148.00 kg
Dry Mass 140.00 kg
Total Mass 148.00 kg
Length 1.30 m
Diameter 1.00 m
Span 5.00 m
Shape Trapezoid+2 pan
Manufacturer ONEWUS
Bus Type ARROW
Phase Status In Orbit
Owner/State ONEWEBN/UK

Most Searched